星链-1909 (STARLINK-1909 )

导读 | 星芒AI

STARLINK-1909 是 SpaceX Starlink 卫星互联网项目中的一颗低轨通信卫星。该卫星属于第二批部署的 Starlink 群体,旨在为全球用户提供高速互联网服务。它运行在约 550 公里的轨道高度,采用先进的相控阵天线和激光通信技术,以提升网络连接的稳定性和速度。STARLINK-1909 的发射和运行有助于扩大 Starlink 在全球范围内的覆盖,特别是在偏远和网络基础设施薄弱的地区。

基本信息
目录编号:
47550
目录名称:
STARLINK-1909
国际标识:
2021-009C
轨道中心:
EARTH
卫星名称:
星链-1909
卫星全名:
星链-1909 (STARLINK-1909 )
卫星状态:
已陨落 最后检测时间 2025-04-05
发射日期:
2021-02-04 UTC
国别 :
美国 (US)
星等 :
--
轨道信息
数据来源 国际轨道数据
星历时间: 2025-04-05T13:33:10+0800
轨道信息已过期207天
半长轴: 6532.034km
偏心率: 0.0003185
轨道倾角: 53.032°
近地点辐角 218.943°
升交点赤经 29.087°
平近点角 281.125°
近地点: 151.818km
远地点: 155.98km
周期: 87.565分钟
每日圈数: 16.444859
详细信息
固有亮度:
5
最大亮度:
2.5
卫星平台:
Starlink V1.0
覆盖范围:
全球
运营商:
太空探索技术公司
运营商所在国:
美国
制造商(研发单位):
太空探索技术公司
制造商所在国:
美国
使用方式:
暂无
卫星简介
星链(Starlink)计划是由太空探索技术公司(SpaceX)提出的一个巨型低轨卫星互联网星座项目,计划在2019年至2024年间在太空搭建由约1.2万颗卫星组成的“星链”网络,其中1584颗将部署在地球上空550千米处的近地轨道,并从2020年开始工作。该卫星仍在工作。